Погода в Михайловке

Россия / Приморский край     44°17′01″N   133°51′28″E
темп.,
°C
ветер,
м/с
пор.,
м/с
влажн.,
%
обл.,
%
осадки,
мм/ч
давл.,
гПа
погр.,
м
6 мая, чт
чт601:00+3ююв259593 0.1 1005102
04:00+6юз3108570 0.1 1004284
07:00+7юз41480100 0.3 1006606
10:00+14зюз5105125 0.4 10061461
13:00+18зюз61430100 0.0 10043076
16:00+19зюз614325 0.0 10032709
19:00+17ююз310427 0.0 1003452
22:00+10юв1166100 0.1 100612
7 мая, пт
пт701:00+8ююв3377100 0.1 100663
04:00+6ююв22860 0.1 100525
07:00+8ююв248020 0.0 100396
10:00+17ю5113526 0.0 10001337
13:00+21ююз61226100 0.0 9971936
16:00+19ююз41032100 0.0 9922885
19:00+13ююв51253100 0.4 9901347
22:00+9ю387552 0.5 990369
8 мая, сб
сб801:00+8ю31079100 0.1 9881118
04:00+8юз61191100 1.9 9901274
07:00+8зюз51193100 0.9 993795
10:00+10юз487828 0.9 995821
13:00+16ююз51141100 0.0 9932176
16:00+17ююв31140100 0.0 9891603
19:00+13юз51157100 0.0 9891110
22:00+9зюз4993100 5.2 989938
9 мая, вс
вс901:00+7ююз1395100 0.9 989152
04:00+5юз499394 2.3 990997
07:00+4зюз5997100 0.6 992824
10:00+4зюз51097100 1.1 994843
13:00+4зюз51097100 0.5 995896
16:00+4з51097100 1.3 997906
19:00+4з41198100 1.1 9991130
22:00+4зсз31198100 2.0 10011264
10 мая, пн
пн1001:00+4зсз3998100 0.6 10031017
04:00+4зсз2998100 1.1 10041072
07:00+4зсз2898100 0.5 1006946
10:00+4з2698100 1.2 1007927
13:00+5зсз3797100 0.6 1009973
16:00+6зсз2790100 0.8 1010799
19:00+8ссз278890 0.1 1010915
22:00+4зсз119676 0.1 101311